TimeEDT,TemperatureF,Dew PointF,Humidity,Sea Level PressureIn,VisibilityMPH,Wind Direction,Wind SpeedMPH,Gust SpeedMPH,PrecipitationIn,Events,Conditions,WindDirDegrees,DateUTC
12:56 AM,62.1,50.0,65,30.01,10.0,North,12.7,17.3,N/A,,Overcast,10,2013-07-25 04:56:00
1:56 AM,61.0,48.0,62,30.01,10.0,NNW,9.2,-,N/A,,Mostly Cloudy,330,2013-07-25 05:56:00
2:56 AM,59.0,48.0,67,30.01,10.0,NNW,5.8,-,N/A,,Overcast,330,2013-07-25 06:56:00
3:56 AM,59.0,46.9,64,30.03,10.0,NNW,4.6,-,N/A,,Overcast,330,2013-07-25 07:56:00
4:56 AM,59.0,48.0,67,30.04,10.0,North,3.5,-,N/A,,Overcast,360,2013-07-25 08:56:00
5:56 AM,59.0,48.0,67,30.06,10.0,NNW,4.6,-,N/A,,Overcast,330,2013-07-25 09:56:00
7:56 AM,59.0,50.0,72,30.09,10.0,North,4.6,-,N/A,,Overcast,360,2013-07-25 11:56:00
8:56 AM,61.0,51.1,70,30.11,10.0,NE,10.4,-,N/A,,Overcast,40,2013-07-25 12:56:00
9:56 AM,61.0,51.1,70,30.12,10.0,NE,11.5,-,N/A,,Overcast,50,2013-07-25 13:56:00
10:56 AM,61.0,52.0,72,30.12,10.0,NE,9.2,-,N/A,,Overcast,50,2013-07-25 14:56:00
11:56 AM,59.0,54.0,83,30.14,10.0,NE,10.4,-,0.00,Rain,Light Rain,40,2013-07-25 15:56:00
12:56 PM,59.0,55.0,87,30.14,10.0,NNE,6.9,-,0.01,,Overcast,30,2013-07-25 16:56:00
1:56 PM,59.0,55.0,87,30.13,10.0,NE,8.1,-,0.00,,Overcast,40,2013-07-25 17:56:00
2:56 PM,61.0,54.0,78,30.13,10.0,NNE,9.2,-,N/A,,Overcast,20,2013-07-25 18:56:00
3:56 PM,61.0,55.0,81,30.12,10.0,NE,8.1,-,0.00,,Overcast,40,2013-07-25 19:56:00
4:06 PM,60.8,55.4,82,30.09,10.0,NNE,6.9,-,N/A,,Overcast,30,2013-07-25 20:06:00
4:24 PM,60.8,55.4,82,30.08,10.0,NE,6.9,-,0.00,Rain,Light Rain,40,2013-07-25 20:24:00
4:56 PM,59.0,55.9,90,30.13,3.0,NNE,4.6,-,0.06,Rain,Rain,30,2013-07-25 20:56:00
5:04 PM,59.0,55.4,88,30.09,1.8,NNE,3.5,-,0.07,Rain,Heavy Rain,30,2013-07-25 21:04:00
5:27 PM,57.2,57.2,100,30.09,2.0,Calm,Calm,-,0.29,Rain,Heavy Rain,0,2013-07-25 21:27:00
5:33 PM,57.2,57.2,100,30.09,1.8,Calm,Calm,-,0.33,Rain,Heavy Rain,0,2013-07-25 21:33:00
5:52 PM,57.2,57.2,100,30.09,2.5,NE,5.8,-,0.46,Rain,Rain,50,2013-07-25 21:52:00
5:56 PM,57.9,57.9,100,30.13,3.0,ENE,5.8,-,0.47,Rain,Rain,70,2013-07-25 21:56:00
6:00 PM,57.2,57.2,100,30.09,2.5,ENE,4.6,-,0.04,Rain,Heavy Rain,60,2013-07-25 22:00:00
6:09 PM,57.2,57.2,100,30.10,1.2,ENE,3.5,-,0.15,Rain,Heavy Rain,70,2013-07-25 22:09:00
6:20 PM,57.2,57.2,100,30.09,3.0,NNE,10.4,-,0.19,Rain,Rain,30,2013-07-25 22:20:00
6:50 PM,57.2,57.2,100,30.08,1.8,NE,11.5,-,0.40,Rain,Heavy Rain,40,2013-07-25 22:50:00
6:56 PM,57.9,57.0,97,30.11,0.8,NE,10.4,-,0.52,Rain,Heavy Rain,40,2013-07-25 22:56:00
7:01 PM,57.2,57.2,100,30.08,1.0,Variable,4.6,-,0.02,Rain,Heavy Rain,0,2013-07-25 23:01:00
7:12 PM,57.2,57.2,100,30.09,2.0,NW,5.8,-,0.06,Rain,Rain,310,2013-07-25 23:12:00
7:17 PM,57.2,55.4,94,30.09,3.0,Variable,4.6,-,0.07,Rain,Light Rain,0,2013-07-25 23:17:00
7:26 PM,57.2,57.2,100,30.09,2.0,North,5.8,-,0.11,Rain,Heavy Rain,360,2013-07-25 23:26:00
7:41 PM,57.2,57.2,100,30.09,2.0,Calm,Calm,-,0.22,Rain,Heavy Rain,0,2013-07-25 23:41:00
7:50 PM,57.2,57.2,100,30.09,3.0,NW,4.6,-,0.28,Rain,Heavy Rain,320,2013-07-25 23:50:00
7:56 PM,57.0,57.0,100,30.13,3.0,Calm,Calm,-,0.29,Rain,Light Rain,0,2013-07-25 23:56:00
8:56 PM,57.9,57.0,97,30.12,10.0,NNW,4.6,-,0.04,Rain,Light Rain,340,2013-07-26 00:56:00
9:56 PM,57.9,57.0,97,30.12,10.0,NW,4.6,-,0.00,Rain,Light Rain,320,2013-07-26 01:56:00
10:56 PM,57.9,57.0,97,30.12,10.0,NNW,5.8,-,0.01,Rain,Light Rain,340,2013-07-26 02:56:00
11:43 PM,57.2,57.2,100,30.07,10.0,NNW,3.5,-,0.00,,Overcast,330,2013-07-26 03:43:00
11:56 PM,57.9,57.9,100,30.11,10.0,NW,5.8,-,0.00,Rain,Light Rain,320,2013-07-26 03:56:00